| time (UTC) | temp F | wind direction | speed MPH | gust MPH | rain 1hr in | rain 24hr in | rain mn in | humidity % | barometer mb |
| 20260507180004 | 56 | 180 | 1.0 | 9.0 | 0.00 | 0.00 | 0.00 | 24 | 1011.3 |
| 20260507175503 | 57 | 46 | 4.0 | 9.0 | 0.00 | 0.00 | 0.00 | 23 | 1011.4 |
| 20260507175004 | 57 | 357 | 5.0 | 10.0 | 0.00 | 0.00 | 0.00 | 23 | 1011.5 |
| 20260507174503 | 58 | 335 | 5.0 | 10.0 | 0.00 | 0.00 | 0.00 | 23 | 1011.6 |
| 20260507174004 | 58 | 3 | 5.0 | 10.0 | 0.00 | 0.00 | 0.00 | 23 | 1011.7 |
| 20260507173504 | 57 | 36 | 3.0 | 8.0 | 0.00 | 0.00 | 0.00 | 24 | 1011.7 |
| 20260507173004 | 56 | 19 | 4.0 | 9.0 | 0.00 | 0.00 | 0.00 | 25 | 1011.7 |
| 20260507172504 | 56 | 12 | 6.0 | 9.0 | 0.00 | 0.00 | 0.00 | 24 | 1011.7 |
| 20260507172004 | 56 | 30 | 6.0 | 9.0 | 0.00 | 0.00 | 0.00 | 25 | 1011.8 |
| 20260507171503 | 56 | 9 | 3.0 | 9.0 | 0.00 | 0.00 | 0.00 | 25 | 1011.8 |
| 20260507171004 | 56 | 38 | 6.0 | 12.0 | 0.00 | 0.00 | 0.00 | 25 | 1011.7 |
| 20260507170503 | 56 | 25 | 7.0 | 13.0 | 0.00 | 0.00 | 0.00 | 25 | 1011.6 |
| 20260507170004 | 56 | 25 | 7.0 | 13.0 | 0.00 | 0.00 | 0.00 | 25 | 1011.5 |
| 20260507165503 | 56 | 5 | 9.0 | 15.0 | 0.00 | 0.00 | 0.00 | 24 | 1011.6 |
| 20260507165003 | 56 | 8 | 8.0 | 16.0 | 0.00 | 0.00 | 0.00 | 25 | 1011.7 |
| 20260507164503 | 55 | 25 | 10.0 | 16.0 | 0.00 | 0.00 | 0.00 | 25 | 1011.6 |
| 20260507164004 | 55 | 24 | 11.0 | 16.0 | 0.00 | 0.00 | 0.00 | 25 | 1011.6 |
| 20260507163503 | 55 | 14 | 12.0 | 17.0 | 0.00 | 0.00 | 0.00 | 25 | 1011.5 |
| 20260507163003 | 56 | 4 | 11.0 | 18.0 | 0.00 | 0.00 | 0.00 | 24 | 1011.5 |
| 20260507162504 | 56 | 8 | 13.0 | 18.0 | 0.00 | 0.00 | 0.00 | 24 | 1011.5 |
| 20260507162004 | 56 | 11 | 14.0 | 18.0 | 0.00 | 0.00 | 0.00 | 24 | 1011.5 |
| 20260507161504 | 56 | 19 | 11.0 | 17.0 | 0.00 | 0.00 | 0.00 | 25 | 1011.4 |
| 20260507161003 | 56 | 27 | 11.0 | 17.0 | 0.00 | 0.00 | 0.00 | 25 | 1011.5 |
| 20260507160503 | 56 | 13 | 10.0 | 17.0 | 0.00 | 0.00 | 0.00 | 24 | 1011.4 |
| 20260507160004 | 57 | 15 | 10.0 | 16.0 | 0.00 | 0.00 | 0.00 | 25 | 1011.3 |
| 20260507155504 | 58 | 10 | 10.0 | 16.0 | 0.00 | 0.00 | 0.00 | 24 | 1011.4 |
| 20260507155003 | 58 | 16 | 11.0 | 16.0 | 0.00 | 0.00 | 0.00 | 23 | 1011.3 |
| 20260507154503 | 59 | 32 | 9.0 | 15.0 | 0.00 | 0.00 | 0.00 | 24 | 1011.3 |
| 20260507154004 | 57 | 19 | 8.0 | 15.0 | 0.00 | 0.00 | 0.00 | 24 | 1011.4 |
| 20260507153504 | 57 | 29 | 9.0 | 15.0 | 0.00 | 0.00 | 0.00 | 24 | 1011.4 |
| 20260507153003 | 57 | 29 | 9.0 | 15.0 | 0.00 | 0.00 | 0.00 | 24 | 1011.4 |
| 20260507152503 | 58 | 22 | 8.0 | 13.0 | 0.00 | 0.00 | 0.00 | 23 | 1011.4 |
| 20260507152004 | 57 | 38 | 6.0 | 13.0 | 0.00 | 0.00 | 0.00 | 25 | 1011.3 |
| 20260507151503 | 57 | 17 | 8.0 | 13.0 | 0.00 | 0.00 | 0.00 | 24 | 1011.4 |
| 20260507151003 | 57 | 24 | 7.0 | 12.0 | 0.00 | 0.00 | 0.00 | 25 | 1011.4 |
| 20260507150503 | 56 | 28 | 7.0 | 13.0 | 0.00 | 0.00 | 0.00 | 24 | 1011.5 |
| 20260507150006 | 56 | 18 | 7.0 | 13.0 | 0.00 | 0.00 | 0.00 | 24 | 1011.6 |
| 20260507145503 | 55 | 3 | 8.0 | 13.0 | 0.00 | 0.00 | 0.00 | 24 | 1011.7 |
| 20260507145003 | 55 | 15 | 9.0 | 12.0 | 0.00 | 0.00 | 0.00 | 24 | 1011.7 |
| 20260507144503 | 55 | 12 | 7.0 | 12.0 | 0.00 | 0.00 | 0.00 | 25 | 1011.7 |
| 20260507144004 | 55 | 28 | 7.0 | 10.0 | 0.00 | 0.00 | 0.00 | 25 | 1011.6 |
| 20260507143503 | 55 | 14 | 6.0 | 10.0 | 0.00 | 0.00 | 0.00 | 26 | 1011.6 |
| 20260507143004 | 55 | 357 | 6.0 | 10.0 | 0.00 | 0.00 | 0.00 | 26 | 1011.6 |
| 20260507142503 | 54 | 347 | 5.0 | 8.0 | 0.00 | 0.00 | 0.00 | 27 | 1011.6 |
| 20260507142004 | 54 | 6 | 5.0 | 7.0 | 0.00 | 0.00 | 0.00 | 27 | 1011.6 |
| 20260507141504 | 53 | 3 | 5.0 | 7.0 | 0.00 | 0.00 | 0.00 | 28 | 1011.6 |
| 20260507141004 | 52 | 354 | 3.0 | 6.0 | 0.00 | 0.00 | 0.00 | 28 | 1011.5 |
| 20260507140503 | 51 | 319 | 2.0 | 6.0 | 0.00 | 0.00 | 0.00 | 30 | 1011.4 |
| 20260507140003 | 51 | 318 | 4.0 | 6.0 | 0.00 | 0.00 | 0.00 | 29 | 1011.4 |
| 20260507135503 | 51 | 310 | 4.0 | 7.0 | 0.00 | 0.00 | 0.00 | 29 | 1011.4 |
| 20260507135003 | 50 | 294 | 4.0 | 7.0 | 0.00 | 0.00 | 0.00 | 30 | 1011.4 |
| 20260507134503 | 49 | 290 | 5.0 | 7.0 | 0.00 | 0.00 | 0.00 | 31 | 1011.3 |
| 20260507134003 | 49 | 308 | 5.0 | 7.0 | 0.00 | 0.00 | 0.00 | 31 | 1011.2 |
| 20260507133503 | 49 | 294 | 4.0 | 9.0 | 0.00 | 0.00 | 0.00 | 31 | 1011.2 |
| 20260507133003 | 48 | 289 | 5.0 | 9.0 | 0.00 | 0.00 | 0.00 | 31 | 1011.2 |
| 20260507132503 | 47 | 292 | 6.0 | 9.0 | 0.00 | 0.00 | 0.00 | 32 | 1011.2 |
| 20260507132003 | 47 | 293 | 6.0 | 8.0 | 0.00 | 0.00 | 0.00 | 31 | 1011.2 |
| 20260507131503 | 47 | 290 | 5.0 | 8.0 | 0.00 | 0.00 | 0.00 | 31 | 1011.1 |
| 20260507131003 | 47 | 289 | 5.0 | 9.0 | 0.00 | 0.00 | 0.00 | 32 | 1011.0 |
| 20260507130504 | 46 | 288 | 5.0 | 9.0 | 0.00 | 0.00 | 0.00 | 32 | 1010.9 |
| 20260507130003 | 46 | 288 | 6.0 | 9.0 | 0.00 | 0.00 | 0.00 | 32 | 1010.9 |
| 20260507125503 | 46 | 292 | 7.0 | 9.0 | 0.00 | 0.00 | 0.00 | 33 | 1010.9 |
| 20260507125003 | 45 | 289 | 6.0 | 10.0 | 0.00 | 0.00 | 0.00 | 33 | 1010.8 |
| 20260507124503 | 44 | 283 | 6.0 | 10.0 | 0.00 | 0.00 | 0.00 | 34 | 1010.8 |
| 20260507124003 | 44 | 288 | 7.0 | 12.0 | 0.00 | 0.00 | 0.00 | 34 | 1010.8 |
| 20260507123503 | 43 | 285 | 7.0 | 12.0 | 0.00 | 0.00 | 0.00 | 35 | 1010.7 |
| 20260507123003 | 43 | 291 | 8.0 | 12.0 | 0.00 | 0.00 | 0.00 | 36 | 1010.7 |
| 20260507122503 | 42 | 293 | 7.0 | 10.0 | 0.00 | 0.00 | 0.00 | 36 | 1010.5 |
| 20260507122004 | 42 | 293 | 7.0 | 9.0 | 0.00 | 0.00 | 0.00 | 37 | 1010.5 |
| 20260507121503 | 42 | 291 | 7.0 | 10.0 | 0.00 | 0.00 | 0.00 | 37 | 1010.5 |
| 20260507121003 | 42 | 280 | 7.0 | 12.0 | 0.00 | 0.00 | 0.00 | 37 | 1010.5 |
| 20260507120503 | 41 | 278 | 7.0 | 12.0 | 0.00 | 0.00 | 0.00 | 37 | 1010.5 |
| 20260507120004 | 41 | 278 | 8.0 | 12.0 | 0.00 | 0.00 | 0.00 | 37 | 1010.5 |
| 20260507115503 | 41 | 272 | 7.0 | 12.0 | 0.00 | 0.00 | 0.00 | 37 | 1010.4 |
| 20260507115003 | 41 | 273 | 7.0 | 12.0 | 0.00 | 0.00 | 0.00 | 37 | 1010.3 |
| 20260507114503 | 41 | 277 | 8.0 | 10.0 | 0.00 | 0.00 | 0.00 | 36 | 1010.3 |
| 20260507114003 | 42 | 278 | 7.0 | 10.0 | 0.00 | 0.00 | 0.00 | 36 | 1010.2 |
| 20260507113503 | 41 | 270 | 7.0 | 10.0 | 0.00 | 0.00 | 0.00 | 36 | 1010.1 |
| 20260507113003 | 41 | 266 | 6.0 | 10.0 | 0.00 | 0.00 | 0.00 | 36 | 1010.1 |
| 20260507112503 | 41 | 269 | 6.0 | 9.0 | 0.00 | 0.00 | 0.00 | 36 | 1010.0 |
| 20260507112003 | 42 | 279 | 6.0 | 8.0 | 0.00 | 0.00 | 0.00 | 35 | 1010.1 |
| 20260507111504 | 42 | 278 | 6.0 | 9.0 | 0.00 | 0.00 | 0.00 | 34 | 1010.0 |
| 20260507111003 | 43 | 266 | 6.0 | 9.0 | 0.00 | 0.00 | 0.00 | 33 | 1010.0 |
| 20260507110503 | 43 | 262 | 5.0 | 9.0 | 0.00 | 0.00 | 0.00 | 33 | 1010.0 |
| 20260507110003 | 43 | 270 | 6.0 | 8.0 | 0.00 | 0.00 | 0.00 | 33 | 1009.9 |
| 20260507105503 | 42 | 269 | 5.0 | 8.0 | 0.00 | 0.00 | 0.00 | 34 | 1009.8 |
| 20260507105003 | 42 | 266 | 5.0 | 8.0 | 0.00 | 0.00 | 0.00 | 34 | 1009.8 |
| 20260507104503 | 42 | 271 | 5.0 | 8.0 | 0.00 | 0.00 | 0.00 | 34 | 1009.7 |
| 20260507104003 | 42 | 274 | 5.0 | 8.0 | 0.00 | 0.00 | 0.00 | 34 | 1009.7 |
| 20260507103503 | 42 | 271 | 5.0 | 8.0 | 0.00 | 0.00 | 0.00 | 34 | 1009.7 |
| 20260507103003 | 43 | 266 | 5.0 | 8.0 | 0.00 | 0.00 | 0.00 | 34 | 1009.7 |
| 20260507102503 | 43 | 264 | 4.0 | 8.0 | 0.00 | 0.00 | 0.00 | 33 | 1009.6 |
| 20260507102003 | 43 | 271 | 5.0 | 8.0 | 0.00 | 0.00 | 0.00 | 33 | 1009.6 |
| 20260507101503 | 43 | 273 | 5.0 | 9.0 | 0.00 | 0.00 | 0.00 | 33 | 1009.7 |
| 20260507101003 | 43 | 275 | 5.0 | 9.0 | 0.00 | 0.00 | 0.00 | 33 | 1009.6 |
| 20260507100503 | 43 | 265 | 6.0 | 9.0 | 0.00 | 0.00 | 0.00 | 33 | 1009.7 |
| 20260507100003 | 43 | 264 | 5.0 | 9.0 | 0.00 | 0.00 | 0.00 | 32 | 1009.7 |
| 20260507095503 | 43 | 263 | 5.0 | 9.0 | 0.00 | 0.00 | 0.00 | 33 | 1009.7 |
| 20260507095003 | 42 | 266 | 5.0 | 9.0 | 0.00 | 0.00 | 0.00 | 34 | 1009.7 |
| 20260507094503 | 43 | 272 | 5.0 | 8.0 | 0.00 | 0.00 | 0.00 | 33 | 1009.8 |
| 20260507094003 | 43 | 270 | 5.0 | 9.0 | 0.00 | 0.00 | 0.00 | 33 | 1009.7 |
| 20260507093502 | 43 | 270 | 5.0 | 9.0 | 0.00 | 0.00 | 0.00 | 33 | 1009.7 |
| 20260507093003 | 43 | 271 | 5.0 | 9.0 | 0.00 | 0.00 | 0.00 | 33 | 1009.6 |
| 20260507092503 | 43 | 275 | 6.0 | 9.0 | 0.00 | 0.00 | 0.00 | 33 | 1009.6 |
| 20260507092002 | 42 | 273 | 6.0 | 9.0 | 0.00 | 0.00 | 0.00 | 33 | 1009.5 |
| 20260507091503 | 42 | 278 | 6.0 | 10.0 | 0.00 | 0.00 | 0.00 | 33 | 1009.5 |
| 20260507091002 | 42 | 280 | 7.0 | 10.0 | 0.00 | 0.00 | 0.00 | 33 | 1009.4 |
| 20260507090503 | 42 | 277 | 7.0 | 12.0 | 0.00 | 0.00 | 0.00 | 34 | 1009.4 |
| 20260507090002 | 42 | 280 | 8.0 | 12.0 | 0.00 | 0.00 | 0.00 | 34 | 1009.4 |
| 20260507085503 | 42 | 281 | 8.0 | 12.0 | 0.00 | 0.00 | 0.00 | 34 | 1009.4 |
| 20260507085003 | 42 | 280 | 8.0 | 12.0 | 0.00 | 0.00 | 0.00 | 34 | 1009.3 |
| 20260507084502 | 42 | 277 | 8.0 | 12.0 | 0.00 | 0.00 | 0.00 | 34 | 1009.3 |
| 20260507084003 | 42 | 279 | 7.0 | 10.0 | 0.00 | 0.00 | 0.00 | 34 | 1009.3 |
| 20260507083502 | 42 | 279 | 7.0 | 10.0 | 0.00 | 0.00 | 0.00 | 34 | 1009.3 |
| 20260507083005 | 42 | 280 | 7.0 | 10.0 | 0.00 | 0.00 | 0.00 | 34 | 1009.3 |
| 20260507082504 | 42 | 286 | 7.0 | 10.0 | 0.00 | 0.00 | 0.00 | 34 | 1009.4 |
| 20260507082004 | 42 | 289 | 6.0 | 8.0 | 0.00 | 0.00 | 0.00 | 34 | 1009.4 |
| 20260507081503 | 42 | 288 | 6.0 | 8.0 | 0.00 | 0.00 | 0.00 | 34 | 1009.5 |
| 20260507081004 | 42 | 286 | 6.0 | 8.0 | 0.00 | 0.00 | 0.00 | 34 | 1009.5 |
| 20260507080503 | 42 | 294 | 5.0 | 8.0 | 0.00 | 0.00 | 0.00 | 34 | 1009.6 |
| 20260507080004 | 42 | 286 | 5.0 | 7.0 | 0.00 | 0.00 | 0.00 | 34 | 1009.7 |
| 20260507075504 | 42 | 289 | 5.0 | 7.0 | 0.00 | 0.00 | 0.00 | 34 | 1009.8 |
| 20260507075004 | 42 | 287 | 4.0 | 8.0 | 0.00 | 0.00 | 0.00 | 34 | 1009.9 |
| 20260507074504 | 42 | 281 | 4.0 | 8.0 | 0.00 | 0.00 | 0.00 | 33 | 1009.9 |
| 20260507074003 | 43 | 270 | 5.0 | 8.0 | 0.00 | 0.00 | 0.00 | 33 | 1009.9 |
| 20260507073504 | 42 | 260 | 3.0 | 7.0 | 0.00 | 0.00 | 0.00 | 33 | 1009.9 |
| 20260507073004 | 42 | 271 | 3.0 | 7.0 | 0.00 | 0.00 | 0.00 | 33 | 1009.9 |
| 20260507072503 | 42 | 265 | 3.0 | 7.0 | 0.00 | 0.00 | 0.00 | 33 | 1009.9 |
| 20260507072004 | 42 | 270 | 1.0 | 5.0 | 0.00 | 0.00 | 0.00 | 35 | 1009.8 |
| 20260507071503 | 43 | 306 | 1.0 | 3.0 | 0.00 | 0.00 | 0.00 | 34 | 1009.9 |
| 20260507071003 | 44 | 241 | 2.0 | 3.0 | 0.00 | 0.00 | 0.00 | 32 | 1009.9 |
| 20260507070503 | 44 | 254 | 1.0 | 3.0 | 0.00 | 0.00 | 0.00 | 32 | 1009.9 |
| 20260507070008 | 44 | 288 | 1.0 | 3.0 | 0.00 | 0.00 | 0.00 | 33 | 1010.0 |
| 20260507065504 | 44 | 208 | 2.0 | 3.0 | 0.00 | 0.00 | 0.00 | 33 | 1010.0 |
| 20260507065004 | 44 | 191 | 2.0 | 3.0 | 0.00 | 0.00 | 0.00 | 33 | 1010.0 |
| 20260507064504 | 44 | 187 | 1.0 | 3.0 | 0.00 | 0.00 | 0.00 | 34 | 1010.1 |
| 20260507064004 | 44 | 228 | 1.0 | 2.0 | 0.00 | 0.00 | 0.00 | 33 | 1010.3 |
| 20260507063503 | 44 | 202 | 1.0 | 2.0 | 0.00 | 0.00 | 0.00 | 35 | 1010.3 |
| 20260507063004 | 44 | 204 | 1.0 | 5.0 | 0.00 | 0.00 | 0.00 | 36 | 1010.3 |
| 20260507062504 | 43 | 219 | 1.0 | 5.0 | 0.00 | 0.00 | 0.00 | 37 | 1010.4 |
| 20260507062004 | 43 | 277 | 2.0 | 5.0 | 0.00 | 0.00 | 0.00 | 36 | 1010.5 |
| 20260507061503 | 44 | 163 | 2.0 | 3.0 | 0.00 | 0.00 | 0.00 | 35 | 1010.5 |
| 20260507061004 | 44 | 178 | 1.0 | 2.0 | 0.00 | 0.00 | 0.00 | 34 | 1010.5 |
| 20260507060504 | 45 | 189 | 1.0 | 3.0 | 0.00 | 0.00 | 0.00 | 34 | 1010.6 |
| 20260507060004 | 45 | 211 | 0.0 | 3.0 | 0.00 | 0.00 | 0.00 | 34 | 1010.5 |
| 20260507055503 | 45 | 234 | 2.0 | 5.0 | 0.00 | 0.00 | 0.00 | 33 | 1010.6 |
| 20260507055003 | 45 | 267 | 2.0 | 5.0 | 0.00 | 0.00 | 0.00 | 34 | 1010.6 |
| 20260507054504 | 45 | 261 | 2.0 | 5.0 | 0.00 | 0.00 | 0.00 | 34 | 1010.6 |
| 20260507054004 | 44 | 274 | 3.0 | 5.0 | 0.00 | 0.00 | 0.00 | 35 | 1010.7 |
| 20260507053503 | 45 | 269 | 3.0 | 5.0 | 0.00 | 0.00 | 0.00 | 34 | 1010.6 |
| 20260507053004 | 45 | 242 | 2.0 | 6.0 | 0.00 | 0.00 | 0.00 | 34 | 1010.6 |
| 20260507052503 | 45 | 232 | 3.0 | 6.0 | 0.00 | 0.00 | 0.00 | 33 | 1010.7 |
| 20260507052004 | 45 | 224 | 3.0 | 6.0 | 0.00 | 0.00 | 0.00 | 34 | 1010.6 |
| 20260507051504 | 45 | 227 | 3.0 | 6.0 | 0.00 | 0.00 | 0.00 | 34 | 1010.7 |
| 20260507051004 | 45 | 217 | 2.0 | 5.0 | 0.00 | 0.00 | 0.00 | 33 | 1010.7 |
| 20260507050503 | 46 | 218 | 2.0 | 5.0 | 0.00 | 0.00 | 0.00 | 33 | 1010.7 |
| 20260507050003 | 46 | 225 | 1.0 | 6.0 | 0.00 | 0.00 | 0.00 | 33 | 1010.8 |
| 20260507045504 | 46 | 211 | 2.0 | 7.0 | 0.00 | 0.00 | 0.00 | 33 | 1010.9 |
| 20260507045004 | 46 | 198 | 4.0 | 7.0 | 0.00 | 0.00 | 0.00 | 33 | 1010.9 |
| 20260507044503 | 46 | 200 | 5.0 | 9.0 | 0.00 | 0.00 | 0.00 | 33 | 1010.9 |
| 20260507044004 | 46 | 199 | 5.0 | 9.0 | 0.00 | 0.00 | 0.00 | 33 | 1010.9 |
| 20260507043503 | 46 | 196 | 6.0 | 10.0 | 0.00 | 0.00 | 0.00 | 33 | 1011.0 |
| 20260507043004 | 46 | 192 | 8.0 | 10.0 | 0.00 | 0.00 | 0.00 | 33 | 1011.0 |
| 20260507042503 | 46 | 192 | 7.0 | 10.0 | 0.00 | 0.00 | 0.00 | 33 | 1011.0 |
| 20260507042005 | 46 | 190 | 7.0 | 9.0 | 0.00 | 0.00 | 0.00 | 33 | 1011.2 |
| 20260507041504 | 46 | 190 | 6.0 | 9.0 | 0.00 | 0.00 | 0.00 | 33 | 1011.2 |
| 20260507041003 | 46 | 190 | 6.0 | 7.0 | 0.00 | 0.00 | 0.00 | 33 | 1011.3 |
| 20260507040504 | 47 | 191 | 5.0 | 7.0 | 0.00 | 0.00 | 0.00 | 32 | 1011.4 |
| 20260507040004 | 46 | 185 | 6.0 | 8.0 | 0.00 | 0.00 | 0.00 | 33 | 1011.5 |
| 20260507035503 | 47 | 181 | 6.0 | 8.0 | 0.00 | 0.00 | 0.00 | 32 | 1011.5 |
| 20260507035003 | 47 | 187 | 5.0 | 8.0 | 0.00 | 0.00 | 0.00 | 31 | 1011.5 |
| 20260507034503 | 47 | 214 | 2.0 | 8.0 | 0.00 | 0.00 | 0.00 | 32 | 1011.7 |
| 20260507034004 | 47 | 193 | 6.0 | 8.0 | 0.00 | 0.00 | 0.00 | 32 | 1011.8 |
| 20260507033503 | 47 | 188 | 6.0 | 8.0 | 0.00 | 0.00 | 0.00 | 32 | 1011.8 |
| 20260507033003 | 47 | 197 | 4.0 | 7.0 | 0.00 | 0.00 | 0.00 | 32 | 1011.9 |
| 20260507032504 | 47 | 184 | 5.0 | 7.0 | 0.00 | 0.00 | 0.00 | 32 | 1011.9 |
| 20260507032003 | 47 | 186 | 4.0 | 7.0 | 0.00 | 0.00 | 0.00 | 32 | 1011.9 |
| 20260507031503 | 48 | 186 | 5.0 | 7.0 | 0.00 | 0.00 | 0.00 | 32 | 1012.0 |
| 20260507031003 | 48 | 193 | 5.0 | 7.0 | 0.00 | 0.00 | 0.00 | 31 | 1012.0 |
| 20260507030503 | 48 | 189 | 5.0 | 6.0 | 0.00 | 0.00 | 0.00 | 31 | 1012.1 |
| 20260507030004 | 48 | 183 | 4.0 | 6.0 | 0.00 | 0.00 | 0.00 | 31 | 1012.1 |
| 20260507025503 | 49 | 181 | 3.0 | 5.0 | 0.00 | 0.00 | 0.00 | 30 | 1012.1 |
| 20260507025003 | 49 | 178 | 3.0 | 5.0 | 0.00 | 0.00 | 0.00 | 30 | 1012.1 |
| 20260507024503 | 49 | 181 | 3.0 | 5.0 | 0.00 | 0.00 | 0.00 | 30 | 1012.1 |
| 20260507024004 | 49 | 186 | 4.0 | 5.0 | 0.00 | 0.00 | 0.00 | 30 | 1012.2 |
| 20260507023503 | 49 | 170 | 3.0 | 5.0 | 0.00 | 0.00 | 0.00 | 30 | 1012.2 |
| 20260507023004 | 49 | 161 | 3.0 | 6.0 | 0.00 | 0.00 | 0.00 | 30 | 1012.2 |
| 20260507022504 | 49 | 155 | 3.0 | 7.0 | 0.00 | 0.00 | 0.00 | 29 | 1012.2 |
| 20260507022003 | 49 | 153 | 4.0 | 7.0 | 0.00 | 0.00 | 0.00 | 29 | 1012.2 |
| 20260507021504 | 49 | 149 | 6.0 | 7.0 | 0.00 | 0.00 | 0.00 | 29 | 1012.2 |
| 20260507021003 | 49 | 144 | 6.0 | 7.0 | 0.00 | 0.00 | 0.00 | 29 | 1012.3 |
| 20260507020503 | 50 | 142 | 5.0 | 6.0 | 0.00 | 0.00 | 0.00 | 28 | 1012.3 |
| 20260507020004 | 50 | 142 | 5.0 | 6.0 | 0.00 | 0.00 | 0.00 | 28 | 1012.3 |
| 20260507015503 | 50 | 138 | 4.0 | 6.0 | 0.00 | 0.00 | 0.00 | 27 | 1012.3 |
| 20260507015004 | 50 | 135 | 4.0 | 6.0 | 0.00 | 0.00 | 0.00 | 27 | 1012.3 |
| 20260507014504 | 50 | 133 | 4.0 | 6.0 | 0.00 | 0.00 | 0.00 | 27 | 1012.3 |
| 20260507014003 | 50 | 124 | 5.0 | 6.0 | 0.00 | 0.00 | 0.00 | 28 | 1012.3 |
| 20260507013503 | 50 | 123 | 4.0 | 6.0 | 0.00 | 0.00 | 0.00 | 28 | 1012.3 |
| 20260507013003 | 51 | 134 | 4.0 | 7.0 | 0.00 | 0.00 | 0.00 | 27 | 1012.3 |
| 20260507012503 | 51 | 152 | 4.0 | 8.0 | 0.00 | 0.00 | 0.00 | 27 | 1012.3 |
| 20260507012003 | 51 | 142 | 5.0 | 8.0 | 0.00 | 0.00 | 0.00 | 27 | 1012.3 |
| 20260507011503 | 51 | 139 | 6.0 | 8.0 | 0.00 | 0.00 | 0.00 | 26 | 1012.3 |
| 20260507011004 | 51 | 133 | 5.0 | 9.0 | 0.00 | 0.00 | 0.00 | 26 | 1012.3 |
| 20260507010503 | 51 | 146 | 5.0 | 9.0 | 0.00 | 0.00 | 0.00 | 26 | 1012.3 |
| 20260507010004 | 51 | 141 | 7.0 | 9.0 | 0.00 | 0.00 | 0.00 | 27 | 1012.3 |
| 20260507005503 | 52 | 145 | 6.0 | 9.0 | 0.00 | 0.00 | 0.00 | 26 | 1012.3 |
| 20260507005004 | 52 | 147 | 6.0 | 10.0 | 0.00 | 0.00 | 0.00 | 26 | 1012.2 |
| 20260507004503 | 52 | 132 | 7.0 | 10.0 | 0.00 | 0.00 | 0.00 | 26 | 1012.2 |
| 20260507004003 | 52 | 119 | 5.0 | 10.0 | 0.00 | 0.00 | 0.00 | 26 | 1012.3 |
| 20260507003503 | 52 | 117 | 5.0 | 10.0 | 0.00 | 0.00 | 0.00 | 26 | 1012.4 |
| 20260507003003 | 52 | 138 | 7.0 | 12.0 | 0.00 | 0.00 | 0.00 | 26 | 1012.4 |
| 20260507002503 | 52 | 142 | 4.0 | 13.0 | 0.00 | 0.00 | 0.00 | 26 | 1012.5 |
| 20260507002003 | 52 | 133 | 9.0 | 13.0 | 0.00 | 0.00 | 0.00 | 25 | 1012.5 |
| 20260507001503 | 53 | 120 | 8.0 | 13.0 | 0.00 | 0.00 | 0.00 | 25 | 1012.6 |
| 20260507001003 | 53 | 116 | 6.0 | 10.0 | 0.00 | 0.00 | 0.00 | 25 | 1012.7 |
| 20260507000503 | 54 | 78 | 3.0 | 8.0 | 0.00 | 0.00 | 0.00 | 25 | 1012.8 |
| 20260507000003 | 53 | 64 | 3.0 | 9.0 | 0.00 | 0.00 | 0.00 | 25 | 1012.9 |
| 20260506235503 | 53 | 70 | 4.0 | 10.0 | 0.00 | 0.00 | 0.00 | 24 | 1012.9 |
| 20260506235003 | 53 | 55 | 5.0 | 10.0 | 0.00 | 0.00 | 0.00 | 24 | 1013.0 |
| 20260506234503 | 54 | 71 | 5.0 | 10.0 | 0.00 | 0.00 | 0.00 | 24 | 1013.0 |
| 20260506234003 | 54 | 90 | 5.0 | 8.0 | 0.00 | 0.00 | 0.00 | 25 | 1013.1 |
| 20260506233503 | 54 | 95 | 4.0 | 8.0 | 0.00 | 0.00 | 0.00 | 24 | 1013.2 |
| 20260506233003 | 54 | 52 | 3.0 | 8.0 | 0.00 | 0.00 | 0.00 | 24 | 1013.2 |
| 20260506232503 | 54 | 281 | 1.0 | 5.0 | 0.00 | 0.00 | 0.00 | 24 | 1013.3 |
| 20260506232003 | 54 | 309 | 2.0 | 7.0 | 0.00 | 0.00 | 0.00 | 24 | 1013.3 |
| 20260506231503 | 54 | 42 | 2.0 | 7.0 | 0.00 | 0.00 | 0.00 | 23 | 1013.3 |
| 20260506231003 | 55 | 2 | 4.0 | 7.0 | 0.00 | 0.00 | 0.00 | 23 | 1013.3 |
| 20260506230503 | 53 | 318 | 2.0 | 7.0 | 0.00 | 0.00 | 0.00 | 24 | 1013.3 |
| 20260506230002 | 53 | 49 | 2.0 | 5.0 | 0.00 | 0.00 | 0.00 | 24 | 1013.3 |
| 20260506225503 | 53 | 44 | 2.0 | 5.0 | 0.00 | 0.00 | 0.00 | 24 | 1013.4 |
| 20260506225003 | 53 | 197 | 1.0 | 7.0 | 0.00 | 0.00 | 0.00 | 24 | 1013.4 |
| 20260506224503 | 53 | 343 | 3.0 | 8.0 | 0.00 | 0.00 | 0.00 | 24 | 1013.5 |
| 20260506224003 | 54 | 325 | 4.0 | 8.0 | 0.00 | 0.00 | 0.00 | 23 | 1013.5 |
| 20260506223503 | 55 | 324 | 4.0 | 8.0 | 0.00 | 0.00 | 0.00 | 23 | 1013.6 |
| 20260506223003 | 54 | 320 | 2.0 | 8.0 | 0.00 | 0.00 | 0.00 | 24 | 1013.6 |
| 20260506222503 | 53 | 1 | 2.0 | 9.0 | 0.00 | 0.00 | 0.00 | 24 | 1013.7 |
| 20260506222003 | 53 | 105 | 4.0 | 9.0 | 0.00 | 0.00 | 0.00 | 24 | 1013.8 |
| 20260506221504 | 54 | 155 | 5.0 | 10.0 | 0.00 | 0.00 | 0.00 | 24 | 1013.9 |
| 20260506221004 | 53 | 140 | 6.0 | 14.0 | 0.00 | 0.00 | 0.00 | 24 | 1014.0 |
| 20260506220504 | 54 | 135 | 6.0 | 14.0 | 0.00 | 0.00 | 0.00 | 24 | 1014.1 |
| 20260506220004 | 54 | 137 | 9.0 | 14.0 | 0.00 | 0.00 | 0.00 | 24 | 1014.2 |
| 20260506215504 | 54 | 93 | 6.0 | 14.0 | 0.00 | 0.00 | 0.00 | 24 | 1014.2 |
| 20260506215004 | 54 | 37 | 4.0 | 9.0 | 0.00 | 0.00 | 0.00 | 25 | 1014.2 |
| 20260506214504 | 53 | 358 | 2.0 | 10.0 | 0.00 | 0.00 | 0.00 | 25 | 1014.4 |
| 20260506214004 | 54 | 94 | 4.0 | 13.0 | 0.00 | 0.00 | 0.00 | 24 | 1014.5 |
| 20260506213505 | 54 | 100 | 6.0 | 14.0 | 0.00 | 0.00 | 0.00 | 25 | 1014.5 |
| 20260506213004 | 53 | 73 | 5.0 | 14.0 | 0.00 | 0.00 | 0.00 | 25 | 1014.6 |
| 20260506212504 | 53 | 96 | 7.0 | 14.0 | 0.00 | 0.00 | 0.00 | 25 | 1014.8 |
| 20260506212003 | 53 | 106 | 5.0 | 10.0 | 0.00 | 0.00 | 0.00 | 25 | 1014.8 |
| 20260506211504 | 51 | 98 | 3.0 | 10.0 | 0.00 | 0.00 | 0.00 | 26 | 1014.9 |
| 20260506211003 | 52 | 100 | 5.0 | 10.0 | 0.00 | 0.00 | 0.00 | 25 | 1015.0 |
| 20260506210504 | 53 | 77 | 5.0 | 10.0 | 0.00 | 0.00 | 0.00 | 25 | 1015.2 |
| 20260506210004 | 52 | 332 | 7.0 | 10.0 | 0.00 | 0.00 | 0.00 | 26 | 1015.2 |
| 20260506205504 | 51 | 67 | 3.0 | 17.0 | 0.00 | 0.00 | 0.00 | 26 | 1015.3 |
| 20260506205004 | 53 | 111 | 7.0 | 17.0 | 0.00 | 0.00 | 0.00 | 24 | 1015.4 |
| 20260506204504 | 54 | 66 | 7.0 | 17.0 | 0.00 | 0.00 | 0.00 | 24 | 1015.4 |
| 20260506204004 | 53 | 342 | 6.0 | 10.0 | 0.00 | 0.00 | 0.00 | 24 | 1015.4 |
| 20260506203504 | 53 | 339 | 4.0 | 10.0 | 0.00 | 0.00 | 0.00 | 24 | 1015.5 |
| 20260506203004 | 52 | 275 | 4.0 | 10.0 | 0.00 | 0.00 | 0.00 | 25 | 1015.6 |
| 20260506202503 | 52 | 225 | 5.0 | 10.0 | 0.00 | 0.00 | 0.00 | 25 | 1015.7 |
| 20260506202004 | 51 | 150 | 5.0 | 10.0 | 0.00 | 0.00 | 0.00 | 25 | 1015.7 |
| 20260506201504 | 53 | 127 | 7.0 | 14.0 | 0.00 | 0.00 | 0.00 | 25 | 1015.8 |
| 20260506201003 | 52 | 54 | 5.0 | 14.0 | 0.00 | 0.00 | 0.00 | 25 | 1015.8 |
| 20260506200503 | 52 | 97 | 6.0 | 16.0 | 0.00 | 0.00 | 0.00 | 25 | 1015.9 |
| 20260506200004 | 52 | 144 | 6.0 | 16.0 | 0.00 | 0.00 | 0.00 | 25 | 1016.0 |
| 20260506195503 | 52 | 141 | 5.0 | 16.0 | 0.00 | 0.00 | 0.00 | 25 | 1016.0 |
| 20260506195004 | 53 | 336 | 4.0 | 9.0 | 0.00 | 0.00 | 0.00 | 25 | 1016.1 |
| 20260506194503 | 51 | 96 | 3.0 | 13.0 | 0.00 | 0.00 | 0.00 | 25 | 1016.2 |
| 20260506194004 | 51 | 136 | 5.0 | 13.0 | 0.00 | 0.00 | 0.00 | 25 | 1016.2 |
| 20260506193503 | 51 | 116 | 6.0 | 15.0 | 0.00 | 0.00 | 0.00 | 25 | 1016.2 |
| 20260506193004 | 51 | 146 | 6.0 | 15.0 | 0.00 | 0.00 | 0.00 | 26 | 1016.3 |
| 20260506192504 | 51 | 126 | 8.0 | 15.0 | 0.00 | 0.00 | 0.00 | 25 | 1016.3 |
| 20260506192004 | 51 | 179 | 6.0 | 12.0 | 0.00 | 0.00 | 0.00 | 25 | 1016.3 |
| 20260506191503 | 51 | 146 | 4.0 | 12.0 | 0.00 | 0.00 | 0.00 | 25 | 1016.4 |
| 20260506191004 | 51 | 76 | 4.0 | 7.0 | 0.00 | 0.00 | 0.00 | 26 | 1016.4 |
| 20260506190503 | 50 | 81 | 3.0 | 7.0 | 0.00 | 0.00 | 0.00 | 27 | 1016.5 |
| 20260506190005 | 50 | 66 | 3.0 | 7.0 | 0.00 | 0.00 | 0.00 | 27 | 1016.6 |
| 20260506185503 | 50 | 23 | 4.0 | 9.0 | 0.00 | 0.00 | 0.00 | 26 | 1016.7 |
| 20260506185003 | 50 | 15 | 4.0 | 13.0 | 0.00 | 0.00 | 0.00 | 26 | 1016.8 |
| 20260506184504 | 50 | 17 | 6.0 | 13.0 | 0.00 | 0.00 | 0.00 | 26 | 1016.9 |
| 20260506184003 | 51 | 51 | 6.0 | 13.0 | 0.00 | 0.00 | 0.00 | 27 | 1017.0 |
| 20260506183503 | 50 | 75 | 6.0 | 12.0 | 0.00 | 0.00 | 0.00 | 27 | 1017.1 |
| 20260506183004 | 49 | 23 | 3.0 | 14.0 | 0.00 | 0.00 | 0.00 | 28 | 1017.2 |
| 20260506182504 | 49 | 326 | 5.0 | 15.0 | 0.00 | 0.00 | 0.00 | 27 | 1017.3 |
| 20260506182003 | 50 | 27 | 8.0 | 15.0 | 0.00 | 0.00 | 0.00 | 27 | 1017.4 |
| 20260506181504 | 50 | 29 | 9.0 | 15.0 | 0.00 | 0.00 | 0.00 | 28 | 1017.3 |
| 20260506181004 | 49 | 59 | 5.0 | 14.0 | 0.00 | 0.00 | 0.00 | 28 | 1017.5 |
| 20260506180504 | 48 | 339 | 6.0 | 12.0 | 0.00 | 0.00 | 0.00 | 27 | 1017.6 |